Temp
19 19 19 19 18 18 18 18 18 18 17 17 17 17 17 17 16 16 16 16 16 16 16 16 16 16 15 15 15 15 15 15 14 14 15 15 14 14 14 14 14 14
19 19 19 19 19 18 18 18 18 18 18 18 17 17 17 17 17 16 16 16 16 16 16 16 16 16 15 15 15 15 15 15 14 14 14 14 14 14 14 14 14 14
19 19 19 19 19 19 18 18 18 18 18 18 18 17 17 17 17 17 16 16 16 16 16 16 16 15 15 15 15 15 15 15 14 14 14 14 14 14 14 14 14 14
19 19 19 19 19 19 19 19 18 18 18 18 18 18 17 17 17 17 16 16 16 16 16 15 16 15 15 15 15 15 15 15 14 14 14 14 14 14 14 14 14 14
19 19 19 19 19 19 19 19 19 19 19 18 18 18 18 17 17 17 17 16 16 16 16 15 15 15 15 15 15 15 15 15 14 14 14 14 14 14 14 14 14 14
19 19 19 19 19 19 19 19 19 19 19 19 18 18 18 18 17 17 17 17 16 16 16 15 15 15 15 15 15 15 15 15 15 14 14 14 14 14 14 14 14 14
19 19 19 19 19 19 19 19 19 19 19 18 18 18 18 18 18 17 17 17 16 16 16 16 15 15 15 15 15 15 15 15 15 15 15 14 14 14 14 14 14 14
18 19 19 19 19 19 19 19 19 19 19 18 18 18 18 18 18 18 17 17 17 16 16 16 16 15 15 15 15 15 15 15 15 15 15 14 14 14 14 14 14 14
17 18 18 18 19 18 18 18 18 18 18 18 18 18 18 18 17 17 17 16 16 16 16 16 16 16 16 15 15 15 15 15 15 15 15 15 15 14 14 14 14 14
16 16 16 17 17 17 17 17 17 18 18 18 18 18 18 17 17 17 16 16 16 16 16 15 15 15 15 15 15 15 15 15 15 15 15 15 15 15 14 14 14 14
16 16 16 16 16 16 17 17 17 17 17 17 17 17 17 17 16 16 16 16 16 16 16 15 15 15 15 15 15 15 15 15 15 15 15 15 15 15 14 14 14 14
16 16 16 16 16 16 17 17 17 17 17 17 17 17 17 17 17 17 17 17 16 16 16 15 15 15 15 15 15 15 15 15 15 15 15 15 15 15 15 14 14 14
16 16 16 16 16 16 16 17 17 17 17 17 17 17 16 16 16 16 16 16 16 16 16 15 15 15 15 15 15 15 15 15 15 15 15 15 15 15 15 14 14 14
16 16 16 16 16 16 16 16 16 16 17 17 16 16 16 16 15 15 16 16 16 16 16 16 15 15 14 14 15 15 15 15 15 15 15 15 15 15 15 14 14 14
17 16 17 17 17 17 16 16 16 17 17 16 16 16 16 16 15 15 15 15 15 15 16 16 15 15 15 15 15 15 15 15 15 15 15 15 15 15 14 14 14 14
17 17 17 17 17 17 17 17 17 17 17 17 17 16 16 16 16 16 15 15 15 15 15 15 15 15 15 15 15 15 15 14 15 15 15 15 15 14 14 14 14 13
17 17 17 17 17 17 17 17 17 17 17 17 17 16 16 16 16 16 16 15 15 15 15 15 15 15 15 15 15 15 14 14 14 14 14 15 15 14 14 14 13 13
17 17 17 17 17 17 17 17 17 17 16 16 16 16 16 16 16 16 16 16 15 15 15 15 15 15 15 15 15 15 15 14 14 14 14 14 14 14 14 13 13 13
16 17 17 17 17 17 17 17 16 16 16 16 16 16 16 16 16 16 16 16 16 16 15 15 15 15 15 15 15 15 15 14 14 14 13 13 14 14 14 13 13 12
16 16 16 16 16 16 16 16 16 16 16 16 16 16 16 16 16 16 16 16 16 16 16 15 15 15 15 15 15 15 14 14 13 13 13 13 14 13 13 13 12 12
16 16 16 16 16 16 16 16 16 16 16 16 16 16 16 16 16 16 16 16 16 16 16 15 15 15 15 15 15 15 14 13 13 13 13 13 13 13 12 12 12 12
16 16 16 16 16 16 16 16 15 15 15 15 15 15 15 15 15 15 15 15 15 15 15 15 15 15 15 15 15 14 13 13 13 13 13 12 12 12 11 11 11 11
16 16 16 16 16 15 15 15 15 15 15 15 15 15 15 15 15 15 15 15 15 15 15 15 15 15 15 15 14 13 13 13 13 12 12 11 11 11 11 11 10 10
15 15 15 15 15 15 15 15 15 15 15 15 15 15 15 15 15 14 14 14 14 15 15 14 14 14 14 14 14 13 12 12 12 11 11 10 10 10 10 10 10 10
15 15 15 15 15 15 15 15 15 15 15 14 14 14 14 14 14 14 14 13 13 14 14 13 13 13 12 13 13 12 12 12 11 11 10 10 10 10 10 9 9 9
14 14 14 14 14 14 14 14 14 14 14 14 14 14 14 14 13 13 12 12 12 12 12 12 12 12 11 11 11 11 11 11 10 10 10 9 9 9 9 9 9 9
Height
798 799 801 804 806 808 809 810 811 812 812 813 814 816 817 819 820 822 823 824 825 825 826 827 827 828 828 828 828 828 828 828 828 828 828 828 828 828 828 828 828 828
798 799 801 803 806 808 810 811 811 812 812 813 814 815 816 818 819 821 822 824 825 826 826 827 828 828 829 829 829 829 829 829 829 829 829 829 829 829 829 829 829 829
799 800 801 803 805 807 809 811 811 812 813 813 814 814 815 817 818 820 821 823 824 825 826 827 828 829 829 830 830 830 830 830 830 830 830 830 830 830 830 830 830 830
800 801 802 803 805 807 809 810 811 812 812 813 814 814 815 816 818 819 821 822 823 825 826 827 828 829 829 830 830 831 831 831 831 831 831 831 831 831 830 830 830 830
803 803 803 804 805 806 808 809 810 811 812 813 813 814 815 816 817 818 820 822 823 824 826 827 828 829 830 830 831 831 831 831 831 832 832 832 832 832 831 831 831 831
804 804 804 804 804 805 806 807 809 810 811 812 813 813 814 815 817 818 819 821 822 824 825 826 827 828 829 830 831 832 832 832 832 832 832 832 832 832 832 832 832 832
802 804 804 804 804 804 805 806 808 809 810 811 812 813 813 814 816 817 818 820 822 824 825 826 827 828 829 830 831 832 832 832 832 832 832 832 832 833 833 833 833 833
800 802 803 804 804 804 805 806 807 807 808 810 811 812 812 813 814 815 817 820 821 824 825 826 827 828 829 830 831 832 832 832 832 832 833 833 833 833 833 833 833 833
799 801 802 803 803 804 805 806 806 806 807 808 810 811 812 813 813 814 816 818 820 823 825 826 826 827 828 829 830 831 831 831 831 832 832 832 832 832 832 833 833 833
799 800 802 803 803 804 805 806 805 805 806 807 809 810 811 812 812 813 814 816 817 819 821 823 824 825 827 829 829 829 829 829 830 830 831 831 831 831 832 832 833 833
800 801 802 804 804 804 804 805 805 805 805 806 807 808 809 810 810 811 812 813 814 815 817 820 822 823 825 827 828 828 827 827 827 828 829 830 830 831 831 831 832 832
799 801 802 803 803 803 803 804 804 804 804 805 806 807 808 809 809 810 811 811 812 814 816 818 819 821 822 822 823 823 824 824 824 825 826 827 829 829 830 830 830 831
799 801 801 802 802 802 802 803 803 803 803 804 805 805 806 806 807 808 809 810 811 812 814 816 817 818 819 819 819 819 820 822 822 823 823 824 825 826 828 828 829 830
799 800 801 801 801 801 802 802 801 802 802 802 803 803 804 805 806 807 807 808 809 810 811 813 814 814 815 817 817 817 817 818 820 820 819 820 821 823 825 826 827 828
799 800 800 801 801 800 801 801 801 801 801 801 802 802 803 803 804 805 806 806 807 808 809 810 811 811 812 813 815 815 816 817 817 817 817 818 819 820 822 823 825 826
799 799 800 800 800 800 800 800 800 800 800 800 800 800 801 802 802 803 804 804 805 806 807 807 808 808 809 811 812 813 814 814 815 816 817 817 817 818 819 820 822 823
798 798 799 799 799 799 799 799 799 799 799 799 799 799 800 800 801 802 802 803 803 804 805 805 806 806 807 808 810 811 811 812 813 814 815 815 815 815 816 818 819 820
797 797 797 798 798 798 798 798 799 799 799 799 799 799 799 799 800 800 801 801 802 802 803 804 804 804 805 807 808 808 809 809 810 811 812 814 814 814 815 816 817 818
797 797 797 797 797 798 798 798 798 798 799 799 799 799 799 799 800 800 800 800 800 801 801 802 803 803 804 805 806 806 807 807 807 808 809 811 812 813 813 814 815 817
797 797 797 797 797 797 798 798 798 798 799 799 799 798 798 798 799 799 799 800 799 799 799 800 801 802 803 803 803 804 805 805 806 807 807 808 809 810 812 813 815 816
797 797 797 797 797 797 798 798 798 799 799 799 799 798 798 798 798 798 798 798 799 799 799 799 799 800 801 801 802 802 803 804 805 806 806 807 809 810 811 813 814 815
797 797 797 797 797 797 798 798 799 798 799 799 798 799 798 798 798 797 797 797 797 798 798 798 798 798 798 799 800 801 802 803 804 805 806 807 808 810 811 812 813 814
796 796 796 796 796 797 797 797 798 798 798 798 798 798 798 798 798 797 796 796 796 797 796 796 796 796 797 798 798 799 801 802 803 804 805 806 807 809 810 811 813 814
796 796 796 796 796 796 796 796 797 797 797 797 797 797 797 797 797 796 796 796 796 796 795 795 795 795 795 796 797 798 800 801 802 803 804 806 807 809 810 810 812 813
796 795 795 795 795 795 795 795 795 796 796 796 796 796 796 796 795 795 795 795 795 795 795 795 795 795 795 796 796 797 799 800 801 803 804 805 807 808 809 809 810 812
795 795 795 795 794 794 794 794 794 794 794 795 795 795 795 794 793 793 793 794 794 795 795 795 795 795 796 796 797 797 799 800 801 802 803 805 806 807 808 809 810 810
Wind_Speed
25 24 24 23 20 20 20 19 18 19 17 16 14 13 12 10 9 9 8 8 6 4 5 5 6 9 9 6 5 3 4 6 6 6 7 9 8 10 11 11 9 7
24 24 23 21 20 19 18 18 17 17 16 15 14 13 13 11 10 10 9 8 7 5 4 4 6 9 9 7 5 2 2 4 5 7 7 8 8 10 11 11 9 6
22 23 22 20 20 19 17 16 16 16 15 14 14 14 14 13 11 11 11 9 8 6 5 4 5 8 8 6 5 3 2 4 5 6 5 4 6 8 10 10 8 5
19 21 20 18 18 18 17 16 15 17 15 13 13 14 14 14 12 12 12 10 9 8 6 5 5 7 7 6 6 6 3 3 5 5 5 4 4 5 6 8 7 5
15 17 17 16 15 16 18 17 15 16 17 14 13 13 14 14 13 12 11 11 10 10 9 7 5 6 7 7 7 8 6 5 6 6 5 6 6 4 4 5 8 7
12 14 15 16 15 15 18 19 16 15 15 14 13 13 13 13 13 12 11 11 11 11 11 10 8 7 8 8 8 8 7 7 8 7 6 7 7 6 4 5 8 7
13 13 14 15 14 14 16 19 18 16 14 13 12 13 13 13 13 13 12 11 11 11 12 12 12 10 9 10 9 8 8 9 10 9 8 9 9 6 6 6 6 7
14 13 14 14 12 12 12 15 17 17 16 14 12 12 12 13 13 13 13 11 11 11 12 13 14 12 11 11 11 10 10 10 11 11 10 11 11 9 8 7 6 7
13 12 12 12 11 10 8 10 12 13 13 14 14 13 11 10 10 13 14 12 11 10 12 14 16 16 14 13 13 13 12 13 13 13 12 12 13 12 11 9 8 8
12 11 10 10 10 9 8 8 9 10 11 13 13 12 12 9 7 11 14 14 12 12 15 16 15 15 15 15 15 15 15 15 16 15 14 14 14 14 14 12 11 10
9 8 9 9 9 9 9 8 7 7 9 11 11 11 12 11 9 9 11 12 13 13 15 16 14 13 13 14 17 19 18 17 18 18 17 16 15 14 15 14 14 14
9 9 10 11 11 12 13 13 11 10 10 12 13 14 14 14 15 14 13 14 16 17 17 16 15 15 16 17 19 22 22 21 19 20 20 19 17 15 16 16 16 16
9 9 10 11 12 12 13 13 13 13 14 15 15 15 14 15 15 15 16 16 17 20 22 20 17 17 19 20 20 21 24 24 23 21 21 21 19 17 17 16 15 15
8 8 7 6 6 8 9 10 10 11 12 14 15 15 15 15 15 15 15 15 15 18 22 22 21 21 21 21 21 21 23 24 26 26 23 22 20 18 18 17 15 15
7 7 5 3 3 4 5 5 5 5 6 8 10 11 13 15 16 17 18 18 16 17 19 21 21 23 23 22 22 23 22 21 24 28 27 23 21 19 18 18 17 16
4 4 3 2 2 2 2 3 3 3 4 5 6 7 8 10 12 14 17 19 18 18 19 20 21 23 24 23 22 23 23 20 20 23 25 24 22 21 20 19 19 18
2 2 1 0 0 1 1 1 2 3 5 6 7 9 9 8 8 9 10 12 14 16 18 19 20 22 22 22 21 21 23 22 20 19 22 24 23 22 22 20 19 19
3 2 2 2 2 2 3 4 4 4 4 4 5 7 8 10 10 10 9 9 10 13 14 15 17 18 19 19 18 18 20 22 22 20 20 22 23 23 23 21 20 19
3 2 2 3 2 2 3 5 5 6 6 6 6 6 6 7 9 10 12 12 12 13 13 14 14 14 14 15 16 17 18 20 21 20 20 21 23 23 22 22 21 19
3 3 3 2 2 2 3 4 5 6 7 8 9 9 9 9 9 9 10 12 14 16 16 15 13 12 12 14 15 15 16 17 17 17 19 22 23 22 22 21 20 18
3 4 4 3 2 3 4 5 6 7 8 8 9 10 11 12 13 13 13 13 14 15 16 16 14 13 14 15 14 14 14 14 14 15 19 21 20 20 19 18 17 16
5 4 3 2 2 3 5 6 7 8 9 9 9 9 10 11 13 14 15 16 16 16 15 16 16 16 15 14 13 14 14 14 14 17 19 19 18 18 17 15 14 13
5 5 5 4 4 5 6 7 8 8 9 9 9 10 11 12 13 13 14 15 16 16 15 15 16 16 14 13 12 13 15 16 16 17 18 18 16 14 12 10 8 8
7 7 7 7 6 6 7 7 8 8 8 9 9 10 11 11 13 13 13 13 14 14 13 13 14 13 12 12 12 13 15 16 16 17 16 14 12 10 9 8 7 7
9 9 9 10 10 10 10 11 13 13 12 11 11 11 12 12 12 11 10 10 10 10 9 9 10 9 9 11 12 14 15 16 16 16 14 12 12 12 11 10 8 7
11 11 11 11 11 11 11 12 13 13 12 11 11 11 11 11 10 7 5 5 4 4 4 5 7 8 11 12 14 15 15 14 14 14 14 13 13 13 12 9 6 4
Wind_Direction
169 167 169 171 168 165 166 162 160 166 169 170 167 162 164 165 162 159 145 148 170 169 140 136 133 137 137 134 136 112 91 97 98 92 86 89 105 119 116 107 98 89
171 170 169 170 169 169 171 169 165 170 177 180 176 169 168 170 166 167 166 170 184 197 176 148 135 140 141 138 146 156 120 114 107 97 86 76 88 107 114 109 98 79
173 172 169 168 171 171 174 177 172 171 178 184 183 179 176 176 174 171 177 185 193 204 202 178 150 148 151 154 170 195 169 140 125 108 103 88 87 103 117 116 106 88
176 174 171 169 173 176 175 178 180 176 175 179 184 186 185 183 181 177 182 191 198 205 207 203 180 164 171 184 189 198 205 180 157 147 156 156 129 125 132 131 128 119
184 182 181 178 179 184 182 180 181 178 176 178 181 186 190 191 189 185 188 194 199 207 212 217 214 189 189 202 200 198 207 203 188 186 178 167 171 177 163 149 142 134
189 188 187 186 187 190 188 185 182 178 177 181 183 186 191 195 198 198 198 200 202 209 215 220 224 213 202 211 217 214 218 214 204 205 195 183 193 201 185 165 151 148
189 194 191 188 186 182 182 185 185 181 176 177 184 194 200 201 204 207 209 209 207 212 221 225 227 227 216 216 224 227 229 230 224 221 212 205 212 209 194 190 171 166
185 194 196 192 185 175 174 182 187 187 185 185 186 192 200 206 212 216 214 210 209 217 226 230 232 234 228 221 225 229 230 235 237 233 222 217 222 217 204 206 199 195
180 184 188 190 189 188 191 192 192 195 198 202 203 202 204 208 212 209 201 196 201 213 228 236 237 235 231 228 229 229 230 234 238 238 231 226 228 224 215 214 213 210
173 179 189 194 194 198 211 213 201 197 200 206 214 219 217 213 204 198 195 197 205 213 222 232 236 230 225 229 232 233 232 231 233 238 237 233 233 230 223 221 220 218
185 191 206 215 214 211 220 228 216 203 204 209 221 231 230 229 234 229 216 214 221 225 225 227 230 227 224 229 234 235 234 231 229 232 235 236 237 235 229 225 225 225
201 212 224 231 233 231 231 235 235 232 231 229 232 235 235 236 243 247 244 239 238 238 236 232 229 230 235 237 233 231 232 232 230 229 231 233 235 236 234 232 229 226
191 207 223 230 234 235 236 238 241 241 238 235 234 233 230 231 236 241 246 248 246 243 241 239 232 233 239 240 237 233 229 229 230 229 228 230 230 230 231 233 231 220
167 175 193 208 216 224 228 233 240 242 239 237 238 240 240 239 241 247 252 254 252 245 243 244 241 239 239 240 243 240 230 228 231 230 227 224 221 221 224 226 220 207
155 156 157 163 176 198 212 219 227 236 239 242 247 250 252 252 254 258 263 265 262 251 245 247 248 247 245 245 248 244 235 235 236 231 227 222 214 212 215 214 208 201
139 148 160 196 218 217 229 243 253 262 265 268 272 266 262 262 261 263 267 268 266 259 253 253 253 252 251 251 253 248 240 239 239 231 226 223 214 205 204 204 203 203
130 135 116 74 328 305 302 300 298 289 278 279 285 283 279 271 259 259 266 268 266 261 258 257 258 258 256 255 256 251 242 242 246 237 228 225 217 205 200 198 196 199
60 59 29 17 5 357 357 358 358 348 329 313 305 300 295 284 271 266 268 270 268 263 260 261 262 264 264 262 261 256 251 250 248 237 228 226 216 205 200 197 196 199
21 0 357 2 357 352 341 336 339 340 337 334 333 333 326 307 289 279 274 273 271 268 267 266 265 269 273 272 269 265 259 252 244 234 228 222 211 203 201 200 199 200
331 316 322 330 332 341 336 330 325 319 313 313 314 313 312 315 312 301 292 286 278 272 267 262 260 267 274 274 274 270 261 250 239 227 216 208 202 201 201 200 200 200
298 285 276 273 287 306 312 314 312 308 304 303 303 300 298 299 302 302 302 301 296 286 272 257 251 255 261 266 268 265 256 245 227 207 196 193 193 193 192 190 190 191
307 300 284 268 278 286 285 288 290 291 296 299 299 298 295 294 294 295 296 296 299 298 285 265 252 251 253 256 255 248 237 226 211 198 191 187 184 183 180 177 179 184
344 345 338 328 309 285 271 272 275 278 284 289 292 293 292 293 293 293 292 289 289 293 288 266 249 245 247 248 244 232 220 212 202 192 185 179 174 173 176 178 186 203
324 323 325 326 318 302 288 284 284 284 285 286 290 293 293 293 292 289 287 288 288 290 286 264 245 237 235 236 232 222 214 207 195 180 172 169 166 165 171 177 188 211
307 306 303 298 295 292 289 286 281 277 278 279 282 286 289 289 288 283 280 280 281 281 274 256 238 221 207 209 209 206 204 199 187 175 166 161 162 161 160 164 175 188
299 298 293 288 286 286 287 287 279 270 268 271 272 274 279 280 275 269 264 257 255 257 245 226 213 194 183 186 189 190 191 189 181 173 165 160 162 163 162 163 172 192